Track STARLINK-1623 now! 10-day predictions STARLINK-1623 is classified as:
1 46129U 20057N 24325.80280885 .00024936 00000-0 16853-2 0 9990 2 46129 53.0559 243.9812 0001011 106.7786 253.3314 15.06437887235200